{"data":{"norad_id":66811,"epoch":"2026-05-25T02:16:41.126016Z","epoch_age_seconds":77510,"freshness":"FRESH","line1":"1 66811U 25278W   26145.09492044  .00007933  00000+0  29746-3 0  9998","line2":"2 66811  43.0027  42.9232 0001113 262.3379  97.7347 15.27584116 26892","mean_motion":15.27584116,"eccentricity":0.0001113,"inclination_deg":43.0027,"raan_deg":42.9232,"arg_perigee_deg":262.3379,"mean_anomaly_deg":97.7347,"bstar":0.00029746,"rev_number":2689,"period_min":94.26649471655,"perigee_km":482.27312264186,"apogee_km":483.80041992335,"semimajor_km":6861.1737712826,"source":"CELESTRAK","updated_at":"2026-05-25T13:38:21.331022Z"}}